| time (UTC) | temp C | wind direction | speed KPH | gust KPH | rain 1hr cm | rain 24hr cm | rain mn cm | humidity % | barometer mb |
| 20260510204915 | 19 | 0.0 | 0.0 | 0.00 | 0.56 | 0.03 | 61 | 1013.4 | |
| 20260510203935 | 20 | 0.0 | 0.0 | 0.00 | 0.58 | 0.03 | 60 | 1013.2 | |
| 20260510202915 | 20 | 85 | 0.0 | 6.4 | 0.00 | 0.58 | 0.03 | 60 | 1013.2 |
| 20260510201935 | 20 | 0.0 | 0.0 | 0.00 | 0.61 | 0.03 | 60 | 1013.2 | |
| 20260510200915 | 21 | 0.0 | 0.0 | 0.00 | 0.61 | 0.03 | 57 | 1013.1 | |
| 20260510195915 | 21 | 0.0 | 0.0 | 0.00 | 0.61 | 0.03 | 56 | 1013.1 | |
| 20260510194935 | 21 | 0.0 | 0.0 | 0.00 | 0.61 | 0.03 | 53 | 1013.1 | |
| 20260510193935 | 22 | 262 | 0.0 | 1.6 | 0.00 | 0.64 | 0.03 | 55 | 1013.2 |
| 20260510192915 | 22 | 0.0 | 0.0 | 0.00 | 0.64 | 0.03 | 54 | 1013.2 | |
| 20260510191915 | 22 | 0.0 | 0.0 | 0.00 | 0.66 | 0.03 | 54 | 1013.3 | |
| 20260510190915 | 22 | 251 | 0.0 | 1.6 | 0.00 | 0.66 | 0.03 | 54 | 1013.3 |
| 20260510185915 | 22 | 0.0 | 0.0 | 0.00 | 0.66 | 0.03 | 54 | 1013.3 | |
| 20260510184915 | 23 | 0.0 | 0.0 | 0.00 | 0.66 | 0.03 | 54 | 1013.4 | |
| 20260510183915 | 22 | 0.0 | 0.0 | 0.00 | 0.66 | 0.03 | 55 | 1013.4 | |
| 20260510182935 | 22 | 0.0 | 0.0 | 0.00 | 0.66 | 0.03 | 58 | 1013.4 | |
| 20260510181915 | 21 | 0.0 | 0.0 | 0.00 | 0.66 | 0.03 | 62 | 1013.3 | |
| 20260510180915 | 21 | 0.0 | 0.0 | 0.00 | 0.69 | 0.03 | 64 | 1013.4 | |
| 20260510175915 | 21 | 0.0 | 0.0 | 0.00 | 0.69 | 0.03 | 65 | 1013.4 | |
| 20260510174915 | 22 | 260 | 0.0 | 1.6 | 0.00 | 0.71 | 0.03 | 64 | 1013.4 |
| 20260510173915 | 22 | 0.0 | 0.0 | 0.00 | 0.74 | 0.03 | 62 | 1013.2 | |
| 20260510172915 | 22 | 0.0 | 3.2 | 0.00 | 0.79 | 0.03 | 61 | 1013.3 | |
| 20260510171955 | 22 | 0.0 | 0.0 | 0.00 | 0.79 | 0.03 | 66 | 1013.3 | |
| 20260510170915 | 21 | 0.0 | 0.0 | 0.00 | 0.79 | 0.03 | 71 | 1013.2 | |
| 20260510165955 | 21 | 0.0 | 0.0 | 0.00 | 0.79 | 0.03 | 69 | 1013.3 | |
| 20260510164915 | 21 | 0.0 | 3.2 | 0.00 | 0.79 | 0.03 | 70 | 1013.4 | |
| 20260510163915 | 20 | 0.0 | 1.6 | 0.00 | 0.79 | 0.03 | 71 | 1013.6 | |
| 20260510162915 | 20 | 0.0 | 0.0 | 0.00 | 0.79 | 0.03 | 72 | 1013.6 | |
| 20260510162035 | 19 | 195 | 0.0 | 3.2 | 0.00 | 0.79 | 0.03 | 78 | 1013.6 |
| 20260510160915 | 18 | 0.0 | 0.0 | 0.00 | 0.79 | 0.03 | 76 | 1013.7 | |
| 20260510155915 | 18 | 0.0 | 0.0 | 0.00 | 0.79 | 0.03 | 79 | 1013.6 | |
| 20260510154935 | 17 | 0.0 | 0.0 | 0.00 | 0.79 | 0.03 | 82 | 1013.4 | |
| 20260510153937 | 17 | 0.0 | 0.0 | 0.00 | 0.79 | 0.03 | 86 | 1013.6 | |
| 20260510152917 | 16 | 0.0 | 0.0 | 0.00 | 0.79 | 0.03 | 87 | 1013.6 | |
| 20260510151917 | 16 | 0.0 | 1.6 | 0.00 | 0.79 | 0.03 | 91 | 1013.5 | |
| 20260510150917 | 15 | 0.0 | 0.0 | 0.00 | 0.79 | 0.03 | 91 | 1013.5 | |
| 20260510145917 | 15 | 0.0 | 0.0 | 0.00 | 0.79 | 0.03 | 92 | 1013.6 | |
| 20260510145716 | 15 | 0.0 | 0.0 | 0.00 | 0.79 | 0.03 | 92 | 1013.6 | |
| 20260510144716 | 14 | 0.0 | 0.0 | 0.00 | 0.79 | 0.03 | 92 | 1013.7 | |
| 20260510143716 | 14 | 0.0 | 0.0 | 0.00 | 0.79 | 0.03 | 93 | 1013.5 | |
| 20260510142716 | 13 | 0.0 | 0.0 | 0.00 | 0.79 | 0.03 | 93 | 1013.5 | |
| 20260510141716 | 13 | 0.0 | 0.0 | 0.00 | 0.79 | 0.03 | 93 | 1013.5 | |
| 20260510140716 | 13 | 0.0 | 0.0 | 0.00 | 0.79 | 0.03 | 93 | 1013.5 | |
| 20260510135736 | 13 | 0.0 | 0.0 | 0.00 | 0.79 | 0.03 | 93 | 1013.4 | |
| 20260510134716 | 13 | 0.0 | 0.0 | 0.00 | 0.79 | 0.03 | 93 | 1013.4 | |
| 20260510133716 | 12 | 0.0 | 0.0 | 0.00 | 0.79 | 0.03 | 93 | 1013.4 | |
| 20260510132736 | 12 | 0.0 | 0.0 | 0.00 | 0.79 | 0.03 | 93 | 1013.4 | |
| 20260510131736 | 12 | 0.0 | 0.0 | 0.00 | 0.79 | 0.03 | 93 | 1013.3 | |
| 20260510130716 | 12 | 0.0 | 0.0 | 0.00 | 0.79 | 0.03 | 93 | 1013.2 | |
| 20260510125756 | 12 | 0.0 | 0.0 | 0.00 | 0.79 | 0.03 | 94 | 1013.0 | |
| 20260510124715 | 11 | 0.0 | 0.0 | 0.00 | 0.79 | 0.03 | 93 | 1012.9 | |
| 20260510123716 | 11 | 0.0 | 0.0 | 0.00 | 0.79 | 0.03 | 94 | 1012.8 | |
| 20260510122716 | 11 | 0.0 | 0.0 | 0.00 | 0.79 | 0.03 | 94 | 1012.8 | |
| 20260510121715 | 11 | 0.0 | 0.0 | 0.00 | 0.79 | 0.03 | 93 | 1012.7 | |
| 20260510120715 | 11 | 0.0 | 0.0 | 0.00 | 0.79 | 0.03 | 93 | 1012.5 | |
| 20260510115716 | 11 | 0.0 | 0.0 | 0.00 | 0.79 | 0.03 | 94 | 1012.5 | |
| 20260510114716 | 11 | 0.0 | 0.0 | 0.00 | 0.79 | 0.03 | 94 | 1012.5 | |
| 20260510113715 | 11 | 0.0 | 0.0 | 0.00 | 0.79 | 0.03 | 94 | 1012.4 | |
| 20260510112715 | 11 | 0.0 | 0.0 | 0.00 | 0.79 | 0.03 | 94 | 1012.3 | |
| 20260510111716 | 10 | 0.0 | 0.0 | 0.00 | 0.79 | 0.03 | 94 | 1012.3 | |
| 20260510110715 | 10 | 0.0 | 0.0 | 0.00 | 0.79 | 0.03 | 94 | 1012.0 | |
| 20260510105715 | 10 | 0.0 | 0.0 | 0.00 | 0.79 | 0.03 | 94 | 1011.7 | |
| 20260510104315 | -17 | 0.0 | 0.0 | 0.00 | 0.79 | 0.03 | |||
| 20260510103315 | -17 | 0.0 | 0.0 | 0.00 | 0.79 | 0.03 | |||
| 20260510101715 | -17 | 0.0 | 0.0 | 0.00 | 0.79 | 0.03 | |||
| 20260510100715 | -17 | 0.0 | 0.0 | 0.00 | 0.79 | 0.03 | |||
| 20260510095215 | -17 | 0.0 | 0.0 | 0.00 | 0.79 | 0.03 | |||
| 20260510094215 | -17 | 0.0 | 0.0 | 0.00 | 0.79 | 0.03 | |||
| 20260510092615 | -17 | 0.0 | 0.0 | 0.00 | 0.79 | 0.03 | |||
| 20260510091615 | 10 | 0.0 | 0.0 | 0.00 | 0.79 | 0.03 | 96 | 1012.1 | |
| 20260510090115 | 10 | 0.0 | 0.0 | 0.00 | 0.79 | 0.03 | 93 | 1012.2 | |
| 20260510085115 | 10 | 0.0 | 0.0 | 0.00 | 0.79 | 0.03 | 93 | 1012.3 | |
| 20260510084135 | 10 | 0.0 | 0.0 | 0.00 | 0.79 | 0.03 | 93 | 1012.3 | |
| 20260510083115 | 10 | 31 | 1.6 | 6.4 | 0.00 | 0.79 | 0.03 | 93 | 1012.3 |
| 20260510082135 | 10 | 0.0 | 0.0 | 0.00 | 0.79 | 0.03 | 93 | 1012.2 | |
| 20260510081135 | 10 | 0.0 | 0.0 | 0.00 | 0.79 | 0.03 | 93 | 1012.0 | |
| 20260510080115 | 10 | 0.0 | 0.0 | 0.00 | 0.79 | 0.03 | 93 | 1011.6 | |
| 20260510075115 | 10 | 0.0 | 0.0 | 0.00 | 0.79 | 0.03 | 93 | 1011.4 | |
| 20260510074115 | 10 | 0.0 | 0.0 | 0.00 | 0.79 | 0.03 | 93 | 1011.3 | |
| 20260510073135 | 10 | 0.0 | 0.0 | 0.00 | 0.79 | 0.03 | 93 | 1011.2 | |
| 20260510072115 | 10 | 0.0 | 0.0 | 0.00 | 0.79 | 0.03 | 93 | 1011.3 | |
| 20260510071115 | 10 | 0.0 | 0.0 | 0.00 | 0.79 | 0.03 | 93 | 1011.3 | |
| 20260510070115 | 10 | 0.0 | 0.0 | 0.00 | 0.79 | 0.03 | 93 | 1011.4 | |
| 20260510065155 | 10 | 0.0 | 0.0 | 0.00 | 0.79 | 0.03 | 93 | 1011.5 | |
| 20260510064155 | 10 | 0.0 | 0.0 | 0.00 | 0.79 | 0.03 | 93 | 1011.5 | |
| 20260510063116 | 10 | 0.0 | 0.0 | 0.00 | 0.79 | 0.03 | 93 | 1011.5 | |
| 20260510062115 | 10 | 0.0 | 0.0 | 0.00 | 0.79 | 0.03 | 93 | 1011.4 | |
| 20260510061116 | 10 | 0.0 | 0.0 | 0.00 | 0.79 | 0.03 | 93 | 1011.1 | |
| 20260510060115 | 10 | 0.0 | 0.0 | 0.00 | 0.79 | 0.03 | 93 | 1011.2 | |
| 20260510055116 | 10 | 0.0 | 0.0 | 0.00 | 0.79 | 0.03 | 93 | 1011.3 | |
| 20260510054155 | 10 | 0.0 | 0.0 | 0.00 | 0.79 | 0.03 | 93 | 1011.2 | |
| 20260510053117 | 10 | 0.0 | 0.0 | 0.00 | 0.79 | 0.03 | 93 | 1011.2 | |
| 20260510052117 | 10 | 0.0 | 0.0 | 0.03 | 0.79 | 0.03 | 93 | 1011.3 | |
| 20260510051117 | 10 | 0.0 | 0.0 | 0.03 | 0.79 | 0.03 | 93 | 1011.4 | |
| 20260510050117 | 10 | 0.0 | 0.0 | 0.03 | 0.79 | 0.03 | 93 | 1011.4 | |
| 20260510045115 | 10 | 0.0 | 0.0 | 0.03 | 0.79 | 0.03 | 93 | 1011.4 | |
| 20260510044117 | 10 | 0.0 | 0.0 | 0.03 | 0.79 | 0.03 | 93 | 1011.5 | |
| 20260510043117 | 10 | 0.0 | 0.0 | 0.03 | 0.79 | 0.03 | 93 | 1011.5 | |
| 20260510042817 | 10 | 0.0 | 0.0 | 0.03 | 0.79 | 0.03 | 93 | 1011.5 | |
| 20260510041817 | 10 | 0.0 | 0.0 | 0.00 | 0.76 | 0.00 | 93 | 1011.6 | |
| 20260510040817 | 10 | 0.0 | 0.0 | 0.00 | 0.76 | 0.00 | 93 | 1011.4 | |
| 20260510035815 | 10 | 0.0 | 0.0 | 0.00 | 0.76 | 0.76 | 93 | 1011.4 | |
| 20260510034815 | 10 | 0.0 | 0.0 | 0.00 | 0.76 | 0.76 | 93 | 1011.3 | |
| 20260510033815 | 10 | 0.0 | 0.0 | 0.00 | 0.76 | 0.76 | 93 | 1011.2 | |
| 20260510032815 | 10 | 0.0 | 0.0 | 0.00 | 0.76 | 0.76 | 93 | 1011.2 | |
| 20260510031815 | 10 | 0.0 | 0.0 | 0.00 | 0.76 | 0.76 | 93 | 1011.1 | |
| 20260510030816 | 10 | 0.0 | 0.0 | 0.00 | 0.76 | 0.76 | 93 | 1011.0 | |
| 20260510025815 | 10 | 0.0 | 0.0 | 0.00 | 0.76 | 0.76 | 93 | 1011.1 | |
| 20260510024817 | 10 | 0.0 | 0.0 | 0.00 | 0.76 | 0.76 | 93 | 1011.0 | |
| 20260510023817 | 10 | 0.0 | 0.0 | 0.00 | 0.76 | 0.76 | 93 | 1011.1 | |
| 20260510022837 | 10 | 0.0 | 0.0 | 0.00 | 0.76 | 0.76 | 92 | 1011.1 | |
| 20260510021837 | 10 | 0.0 | 0.0 | 0.00 | 0.76 | 0.76 | 92 | 1011.2 | |
| 20260510020817 | 11 | 0.0 | 0.0 | 0.00 | 0.76 | 0.76 | 92 | 1011.2 | |
| 20260510015817 | 11 | 0.0 | 0.0 | 0.00 | 0.76 | 0.76 | 92 | 1011.1 | |
| 20260510014816 | 11 | 0.0 | 0.0 | 0.00 | 0.76 | 0.76 | 92 | 1011.1 | |
| 20260510013817 | 11 | 0.0 | 0.0 | 0.00 | 0.76 | 0.76 | 92 | 1011.1 | |
| 20260510012817 | 11 | 0.0 | 0.0 | 0.00 | 0.76 | 0.76 | 92 | 1011.2 | |
| 20260510011817 | 11 | 0.0 | 0.0 | 0.00 | 0.76 | 0.76 | 92 | 1011.0 | |
| 20260510010816 | 11 | 0.0 | 0.0 | 0.00 | 0.76 | 0.76 | 92 | 1010.9 | |
| 20260510005817 | 11 | 0.0 | 0.0 | 0.00 | 0.76 | 0.76 | 92 | 1010.5 | |
| 20260510004817 | 11 | 0.0 | 0.0 | 0.00 | 0.76 | 0.76 | 92 | 1010.5 | |
| 20260510003817 | 11 | 0.0 | 0.0 | 0.00 | 0.76 | 0.76 | 92 | 1010.5 | |
| 20260510002816 | 11 | 0.0 | 0.0 | 0.00 | 0.76 | 0.76 | 92 | 1010.4 | |
| 20260510001817 | 11 | 0.0 | 0.0 | 0.00 | 0.76 | 0.76 | 92 | 1010.4 | |
| 20260510000816 | 11 | 0.0 | 0.0 | 0.00 | 0.76 | 0.76 | 92 | 1010.5 | |
| 20260509235817 | 11 | 0.0 | 0.0 | 0.00 | 0.76 | 0.76 | 92 | 1010.4 | |
| 20260509234817 | 11 | 0.0 | 0.0 | 0.00 | 0.76 | 0.76 | 92 | 1010.3 | |
| 20260509233816 | 11 | 0.0 | 0.0 | 0.00 | 0.76 | 0.76 | 92 | 1010.2 | |
| 20260509233615 | 11 | 0.0 | 0.0 | 0.00 | 0.76 | 0.76 | 92 | 1010.1 | |
| 20260509232615 | 12 | 0.0 | 0.0 | 0.00 | 0.76 | 0.76 | 92 | ||
| 20260509231615 | 12 | 0.0 | 0.0 | 0.00 | 0.76 | 0.76 | 92 | ||
| 20260509230616 | 12 | 0.0 | 0.0 | 0.00 | 0.76 | 0.76 | 92 | ||
| 20260509225616 | 11 | 0.0 | 0.0 | 0.00 | 0.76 | 0.76 | 92 | ||
| 20260509224615 | 12 | 0.0 | 0.0 | 0.00 | 0.76 | 0.76 | 92 | ||
| 20260509223615 | 12 | 0.0 | 0.0 | 0.18 | 0.76 | 0.76 | 91 | ||
| 20260509222615 | 12 | 0.0 | 0.0 | 0.28 | 0.76 | 0.76 | 91 | ||
| 20260509221615 | 12 | 0.0 | 0.0 | 0.36 | 0.76 | 0.76 | 91 | ||
| 20260509220615 | 12 | 0.0 | 0.0 | 0.51 | 0.76 | 0.76 | 91 | ||
| 20260509215636 | 11 | 0.0 | 0.0 | 0.53 | 0.76 | 0.76 | 91 | ||
| 20260509214615 | 11 | 0.0 | 0.0 | 0.56 | 0.76 | 0.76 | 91 | ||
| 20260509213615 | 11 | 0.0 | 0.0 | 0.38 | 0.58 | 0.58 | 91 | ||
| 20260509212615 | 12 | 0.0 | 0.0 | 0.28 | 0.48 | 0.48 | 91 | ||
| 20260509211635 | 12 | 0.0 | 0.0 | 0.23 | 0.41 | 0.41 | 90 | ||
| 20260509210615 | 12 | 0.0 | 0.0 | 0.08 | 0.25 | 0.25 | 90 | 1010.9 | |
| 20260509205615 | 12 | 0.0 | 0.0 | 0.05 | 0.23 | 0.23 | 90 | 1010.7 |